Location: Miles
(41.4492°N, 81.6087°W)
Time: 10:38:53
(UTC+00:00)

Vanguard 1 - All Passes

Search period start: 07 September 2024 00:00
Search period end: 17 September 2024 00:00
Orbit: 649 x 3825 km, 34.2° (Epoch: 06 September)

Date Brightness Start Highest point End Pass type
(mag) Time Alt. Az. Time Alt. Az. Time Alt. Az.
07 Sep - 00:08:46 10° WSW 00:12:34 28° S 00:16:50 10° SE visible
07 Sep - 02:30:22 10° SW 02:32:16 12° SSW 02:34:25 10° S visible
07 Sep - 17:31:21 10° SSE 17:32:42 10° SSE 17:33:59 10° SSE daylight
07 Sep - 19:47:29 10° SW 19:53:18 25° SSE 19:57:27 10° ESE daylight
07 Sep - 22:08:13 10° WSW 22:12:55 36° S 22:16:57 10° ESE daylight
08 Sep - 00:28:42 10° WSW 00:32:13 23° SSW 00:36:11 10° SE visible
08 Sep - 17:47:28 10° S 17:52:36 15° SSE 17:56:34 10° SE daylight
08 Sep - 20:06:51 10° SW 20:13:01 31° S 20:17:22 10° ESE daylight
08 Sep - 22:28:00 10° WSW 22:32:34 35° S 22:36:36 10° ESE daylight
09 Sep - 00:48:52 10° WSW 00:51:51 17° SSW 00:55:12 10° SSE visible
09 Sep - 18:05:38 10° SSW 18:12:29 21° SSE 18:17:16 10° ESE daylight
09 Sep - 20:26:27 10° WSW 20:32:45 36° S 20:37:08 10° ESE daylight
09 Sep - 22:47:50 10° WSW 22:52:11 32° S 22:56:08 10° SE daylight
10 Sep - 01:09:34 10° SW 01:11:29 12° SSW 01:13:32 10° S visible
10 Sep - 16:08:36 10° SSE 16:10:59 11° SSE 16:13:09 10° SE daylight
10 Sep - 18:24:29 10° SW 18:32:19 27° SSE 18:37:28 10° ESE daylight
10 Sep - 20:46:11 10° WSW 20:52:27 39° S 20:56:50 10° ESE daylight
10 Sep - 23:07:45 10° WSW 23:11:47 27° SSW 23:15:32 10° SE daylight
11 Sep - 16:24:11 10° S 16:30:57 16° SSE 16:36:02 10° ESE daylight
11 Sep - 18:43:43 10° SW 18:52:07 32° SSE 18:57:25 10° ESE daylight
11 Sep - 21:06:01 10° WSW 21:12:06 40° S 21:16:27 10° ESE daylight
11 Sep - 23:27:48 10° WSW 23:31:20 21° SSW 23:34:45 10° SSE daylight
12 Sep - 16:41:57 10° SSW 16:50:53 22° SSE 16:56:58 10° ESE daylight
12 Sep - 19:03:15 10° SW 19:11:53 38° S 19:17:12 10° ESE daylight
12 Sep - 21:25:54 10° WSW 21:31:44 39° S 21:36:00 10° ESE daylight
12 Sep - 23:48:06 10° WSW 23:50:51 16° SSW 23:53:34 10° SSE daylight
13 Sep - 14:46:42 10° SSE 14:48:38 10° SSE 14:50:28 10° SE daylight
13 Sep - 17:00:29 10° SSW 17:10:47 28° SSE 17:17:19 10° ESE daylight
13 Sep - 19:22:58 10° WSW 19:31:38 43° S 19:36:54 10° ESE daylight
13 Sep - 21:45:51 10° WSW 21:51:20 35° SSW 21:55:29 10° SE daylight
14 Sep - 00:09:25 10° SW 00:10:21 11° SSW 00:11:16 10° SSW visible
14 Sep - 15:00:37 10° S 15:08:39 16° SSE 15:14:49 10° ESE daylight
14 Sep - 17:19:31 10° SW 17:30:39 34° SSE 17:37:21 10° ESE daylight
14 Sep - 19:42:49 10° WSW 19:51:21 46° S 19:56:33 10° ESE daylight
14 Sep - 22:05:51 10° WSW 22:10:52 29° SSW 22:14:49 10° SE daylight
15 Sep - 15:17:44 10° SSW 15:28:37 21° SSE 15:36:10 10° ESE daylight
15 Sep - 17:38:53 10° SW 17:50:30 40° SSE 17:57:12 10° E daylight
15 Sep - 20:02:46 10° WSW 20:11:02 47° S 20:16:07 10° ESE daylight
15 Sep - 22:25:58 10° WSW 22:30:21 23° SSW 22:33:57 10° SSE daylight
16 Sep - 15:35:51 10° SSW 15:48:34 28° SSE 15:56:45 10° ESE daylight
16 Sep - 17:58:32 10° WSW 18:10:18 45° S 18:16:56 10° E daylight
16 Sep - 20:22:46 10° W 20:30:41 45° S 20:35:38 10° ESE daylight
16 Sep - 22:46:19 10° WSW 22:49:46 17° SSW 22:52:44 10° SSE daylight
